Regional Weather Roundup
Issued by NWS Cleveland, OH

Home | Current Version | Previous Version | Graphics & Text | Print | Product List | Glossary On
Versions: 1 2 3 4 5 6 7 8 9 10 11 12 13 14 15 16 17 18 19 20 21 22 23 24 25 26 27 28 29 30 31 32 33 34 35 36 37 38 39 40 41 42 43 44 45 46 47 48 49 50
000
ASUS41 KCLE 250402
RWRCLE
OHIO REGIONAL WEATHER ROUNDUP
NATIONAL WEATHER SERVICE CLEVELAND, OH
1100 PM EST SAT JAN 24 2015

NOTE: "FAIR" INDICATES FEW OR NO CLOUDS BELOW 12,000 FEET WITH NO
SIGNIFICANT WEATHER AND/OR OBSTRUCTIONS TO VISIBILITY.

OHZ001>008-015>018-024>027-034-035-043-044-250500-
   NORTHWEST OHIO

CITY           SKY/WX    TMP DP  RH WIND       PRES   REMARKS
DEFIANCE       CLOUDY    35  32  88 S5        29.70F
FINDLAY        CLOUDY    36  31  82 SW9       29.70S
TOLEDO EXPRESS CLOUDY    35  30  82 SW9       29.68F WCI  28
TOLEDO EXEC    CLOUDY    35  30  82 SW6       29.70F
LIMA           CLOUDY    37  30  75 SW9       29.71S
$$

OHZ009>014-019>023-028>033-038-089-250500-
   NORTHEAST OHIO

CITY           SKY/WX    TMP DP  RH WIND       PRES   REMARKS
CLE-HOPKINS    CLOUDY    33  29  85 SW12      29.70S WCI  24
CLE-LAKEFRONT  FLURRIES  35  30  82 SW15      29.67S WCI  25
CUY CO. ARPT   LGT SNOW  37  32  81 W15       29.67R
LORAIN-ELYRIA  CLOUDY    34  29  82 W12       29.69S WCI  25
ASHTABULA      CLOUDY    33  29  85 W12       29.64R WCI  24
AKRON-CANTON   CLOUDY    33  28  81 W8        29.68S FOG     WCI  26
WOOSTER        CLOUDY    32  29  88 W10       29.70S WCI  24
MANSFIELD      CLOUDY    33  31  92 SW12      29.69F WCI  24
YOUNGSTOWN     CLOUDY    32  29  88 W14       29.64S FOG     WCI  22
$$

OHZ042-051>053-060>062-070>072-077>081-250500-
  SOUTHWEST OHIO

CITY           SKY/WX    TMP DP  RH WIND       PRES   REMARKS
CINC-COVINGTON MOCLDY    33  27  78 S10       29.78F WCI  25
CINC-LUNKEN    MOCLDY    29  27  92 SW6       29.81F WCI  23
HAMILTON       PTCLDY    36  29  75 S3        29.79F
DAYTON         CLOUDY    36  29  75 SW10      29.75S
WRIGHT-PAT AFB CLOUDY    36  29  77 SW9       29.76S
DAYTON GENERAL CLOUDY    36  29  75 SW8       29.75F
WILMINGTON     CLOUDY    33  27  78 SW8       29.76F WCI  26
$$

OHZ036-037-039>041-045>050-054>059-063>069-073>076-082>088-250500-
  CENTRAL AND SOUTHEAST OHIO

CITY           SKY/WX    TMP DP  RH WIND       PRES   REMARKS
COLUMBUS       CLOUDY    35  28  75 SW9       29.75F WCI  28
OSU AIRPORT    CLOUDY    35  29  78 SW8       29.75F WCI  29
BOLTON FIELD   NOT AVBL
RICKENBACK AFB NOT AVBL
NEWARK         CLOUDY    35  30  82 SW9       29.75F WCI  28
MARION         CLOUDY    35  30  82 SW9       29.72F HAZE    WCI  28
LANCASTER      CLOUDY    35  30  82 SW10      29.77S WCI  27
ZANESVILLE     CLOUDY    33  29  85 SW5       29.76R FOG     WCI  29
NEW PHILLY     CLOUDY    34  29  82 W5        29.73S WCI  30
$$


USA.gov is the U.S. government's official web portal to all federal, state and local government web resources and services.